Location: Bacea
(45.9500°N, 22.6667°E)
Time: 05:52:48
(UTC+00:00)

Cosmos 1953 - Pass Details

Date: 03 June 2022
Orbit: 533 x 555 km, 82.5° (Epoch: 03 July)

Event Time Altitude Azimuth Distance (km) Brightness Sun altitude
Rises 22:51:04 0° 338° (NNW) 2,713 6.9 -21.4°
Reaches altitude 10° 22:53:33 10° 324° (NW) 1,811 5.6 -21.4°
Maximum altitude 22:56:42 23° 272° (W) 1,181 3.9 -21.3°
Enters shadow 22:56:51 23° 268° (W) 1,182 3.9 -21.3°
